Location: ???????
(55.8719°N, 38.1523°E)
Time: 06:39:59
(UTC+00:00)

Meteor 1-27 Rocket - Pass Details

Date: 14 April 2024
Orbit: 829 x 909 km, 81.3° (Epoch: 22 May)

Event Time Altitude Azimuth Distance (km) Brightness Sun altitude
Exits shadow 01:14:53 - 208° (SSW) 2,731 5.8 -9.5°
Reaches altitude 10° 01:15:24 10° 209° (SSW) 2,542 5.7 -9.5°
Maximum altitude 01:21:06 60° 289° (WNW) 993 3.9 -8.8°
Drops below altitude 10° 01:26:44 10° 10° (N) 2,503 6.8 -8.1°
Sets 01:29:12 0° 14° (NNE) 3,432 7.6 -7.8°
